User: anonymous   Login
Location: La Pernelle
(49.6188°N, 1.2999°W)
Time: 13:12:10
(UTC+00:00)
Language:

Cosmos 2173 Rocket - Orbit

View from above orbital plane
View from above orbital plane
View from above satellite
View from above satellite

Ground track
Ground track

The orbit data is extracted from the following two-line orbital elements,

1 21797U 91081B   21265.52001109  .00000052  00000-0  36952-4 0  9995
2 21797  82.9573 344.7992 0038801  43.6989 327.2444 13.77522939498666
Epoch (UTC): 22 September 2021 12:28:48
Eccentricity: 0.0038801
inclination: 82.9573°
perigee height: 944 km
apogee height: 1001 km
right ascension of ascending node: 344.7992°
argument of perigee: 43.6989°
revolutions per day: 13.77522939
mean anomaly at epoch: 327.2444°
orbit number at epoch: 49866

The dashed part of the orbit path shows where the satellite is in the earth's shadow,  

DLR